Regional Weather Roundup
Issued by NWS

Home | Current Version | Previous Version | Graphics & Text | Print | Product List | Glossary On
Versions: 1 2 3 4 5 6 7 8 9 10 11 12 13 14 15 16 17 18 19 20 21 22 23 24 25 26 27 28 29 30 31 32 33 34 35 36 37 38 39 40 41 42 43 44 45 46 47 48 49 50
956
ASUS45 KCYS 241110
RWRWY

WYOMING REGIONAL WEATHER ROUNDUP
NATIONAL WEATHER SERVICE CHEYENNE WY
500 AM MDT SAT SEP 24 2016

NOTE:  "FAIR" INDICATES FEW OR NO CLOUDS BELOW 12,000 FEET
WITH NO SIGNIFICANT WEATHER AND/OR OBSTRUCTIONS TO VISIBILITY.

WYZ001-241200-
YELLOWSTONE NATIONAL PARK

CITY           SKY/WX    TMP DP  RH WIND       PRES   REMARKS
LK YELLOWSTONE   N/A     37  35  92 W5        30.04R WCI  33
W YELLOWSTONE  NOT AVBL

$$
WYZ002>013-054>058-071-098>099-241200-
NORTHERN WYOMING

CITY           SKY/WX    TMP DP  RH WIND       PRES   REMARKS
JACKSON        CLOUDY    37  37 100 CALM      30.01S
CODY           CLOUDY    46  45  93 NE7       29.93F
GREYBULL       HVY RAIN  49  48  97 NW6       29.88F FOG
WORLAND        RAIN      49  48  97 CALM      29.90R FOG
SHERIDAN       RAIN      50  49  96 NW7       29.86S
BUFFALO        LGT RAIN  48  46  93 VRB3      29.87R
GILLETTE       HVY RAIN  47  47 100 NW7       29.84R FOG
HULETT         LGT RAIN  50  48  93 S13       29.83R
NEWCASTLE      DRIZZLE   46  45  93 SW10G21   29.86R

$$
WYZ014>020-022>026-101>103-241200-
CENTRAL WYOMING

CITY           SKY/WX    TMP DP  RH WIND       PRES   REMARKS
BIG PINEY      LGT RAIN  38  36  92 NW6       30.00S WCI  33
PINEDALE       RAIN      36  36 100 NW10G16   30.01R WCI  28
DUBOIS         DRIZZLE   39  34  81 W15       29.94F WCI  31
LANDER         LGT RAIN  45  43  93 CALM      29.92R
RIVERTON       RAIN      44  42  93 N10       29.93R
CASPER         LGT RAIN  44  41  89 SW10      29.91F
DOUGLAS        CLOUDY    44  40  85 W5        29.92F

$$
WYZ021-027>030-104>119-241200-
SOUTHERN WYOMING

CITY           SKY/WX    TMP DP  RH WIND       PRES   REMARKS
EVANSTON       SNOW      32  30  92 SW14      30.07S VSB 1/2 WCI  22
FORT BRIDGER   CLOUDY    37  37 100 W17G24    30.06S WCI  27
ROCK SPRINGS   LGT RAIN  36  35  96 W15       30.02R WCI  27
DIXON          RAIN      40  37  89 S9G16     30.07R WCI  33
RAWLINS        CLOUDY    39  35  86 SW10      30.00F WCI  32
SARATOGA       CLOUDY    37  36  93 CALM      30.03R
LARAMIE        FAIR      35  29  78 SW16      30.00R WCI  25
CHEYENNE       FAIR      38  35  89 W6        29.98R WCI  33
TORRINGTON     FAIR      44  42  93 CALM      29.92F
PINE BLUFFS    FAIR      37  36  93 MISG      29.97S

$$




USA.gov is the U.S. government's official web portal to all federal, state and local government web resources and services.